Temp
-15 -15 -15 -15 -15 -15 -15 -15 -15 -15 -15 -15 -15 -15 -15 -15 -15 -15 -15 -15 -15 -15 -15 -14 -14 -14 -14 -14 -14 -15 -15 -15 -15 -15 -15 -15 -15 -15 -15 -15 -15 -15
-15 -15 -15 -15 -15 -15 -15 -15 -15 -15 -16 -15 -15 -15 -15 -15 -15 -15 -15 -15 -15 -15 -15 -15 -14 -14 -14 -14 -15 -15 -15 -15 -15 -15 -15 -15 -15 -15 -15 -15 -15 -15
-15 -15 -15 -15 -15 -15 -15 -16 -16 -16 -16 -16 -16 -16 -16 -16 -15 -15 -15 -15 -15 -15 -15 -15 -15 -15 -15 -15 -15 -15 -15 -15 -15 -15 -15 -15 -15 -15 -15 -16 -16 -16
-15 -15 -15 -15 -15 -15 -15 -16 -16 -16 -16 -16 -16 -16 -16 -16 -16 -16 -16 -16 -16 -16 -15 -15 -15 -15 -15 -15 -15 -15 -15 -15 -15 -15 -15 -15 -16 -16 -16 -16 -16 -16
-14 -15 -15 -15 -15 -15 -15 -15 -16 -16 -16 -16 -16 -16 -16 -16 -16 -16 -16 -16 -16 -16 -16 -16 -15 -15 -15 -15 -15 -15 -15 -16 -16 -16 -16 -16 -16 -16 -16 -16 -16 -16
-15 -15 -15 -15 -15 -15 -15 -15 -15 -16 -16 -16 -16 -16 -16 -16 -16 -16 -16 -16 -16 -16 -16 -16 -16 -16 -15 -15 -15 -16 -16 -16 -16 -16 -16 -16 -16 -16 -16 -16 -16 -16
-15 -15 -15 -15 -15 -15 -15 -15 -15 -16 -16 -16 -16 -16 -16 -16 -16 -16 -16 -16 -16 -16 -16 -16 -16 -16 -16 -16 -16 -16 -16 -16 -16 -16 -16 -16 -16 -16 -16 -16 -16 -16
-15 -15 -15 -15 -15 -15 -15 -15 -16 -16 -16 -16 -16 -16 -16 -16 -16 -16 -16 -16 -16 -17 -16 -16 -16 -16 -16 -16 -16 -16 -16 -16 -16 -16 -16 -16 -17 -17 -17 -17 -17 -17
-15 -15 -15 -15 -15 -15 -15 -15 -16 -16 -16 -16 -16 -16 -16 -16 -16 -16 -16 -16 -17 -17 -17 -17 -16 -16 -16 -16 -16 -17 -17 -17 -17 -17 -17 -17 -17 -17 -17 -17 -17 -17
-15 -15 -16 -16 -16 -16 -16 -16 -16 -16 -16 -16 -16 -16 -16 -16 -16 -16 -16 -16 -17 -17 -17 -17 -16 -16 -16 -16 -17 -17 -17 -17 -17 -17 -17 -17 -17 -17 -17 -17 -17 -17
-16 -16 -16 -16 -16 -16 -16 -16 -16 -16 -16 -16 -16 -16 -16 -16 -16 -16 -16 -16 -17 -17 -17 -17 -17 -17 -17 -17 -17 -17 -17 -17 -17 -17 -17 -17 -17 -17 -17 -17 -17 -17
-16 -16 -16 -16 -16 -16 -16 -16 -16 -16 -16 -16 -16 -16 -16 -16 -16 -16 -16 -16 -17 -17 -17 -17 -17 -17 -17 -17 -17 -17 -17 -17 -17 -17 -17 -17 -17 -17 -17 -17 -17 -17
-16 -16 -16 -16 -16 -16 -16 -16 -16 -16 -16 -16 -16 -16 -16 -16 -16 -16 -16 -16 -17 -17 -17 -17 -17 -17 -17 -17 -17 -17 -17 -17 -17 -17 -17 -17 -17 -17 -17 -17 -17 -17
-16 -16 -16 -16 -16 -16 -16 -16 -16 -16 -16 -16 -16 -16 -16 -17 -17 -16 -17 -17 -17 -18 -17 -18 -18 -17 -17 -17 -17 -17 -17 -17 -17 -18 -18 -18 -17 -17 -18 -18 -18 -18
-16 -16 -16 -16 -17 -16 -16 -16 -16 -16 -16 -16 -16 -17 -17 -17 -17 -17 -17 -17 -18 -18 -18 -18 -18 -18 -17 -17 -17 -17 -17 -17 -17 -18 -18 -18 -18 -18 -18 -18 -18 -18
-16 -16 -17 -17 -17 -17 -17 -17 -17 -17 -17 -17 -17 -17 -17 -17 -17 -17 -17 -17 -17 -18 -18 -18 -17 -17 -17 -17 -17 -17 -17 -17 -18 -18 -18 -18 -18 -18 -18 -18 -18 -18
-17 -17 -17 -17 -17 -17 -17 -17 -17 -17 -17 -17 -17 -17 -17 -17 -17 -18 -17 -17 -17 -18 -18 -18 -18 -18 -18 -18 -18 -18 -17 -18 -18 -18 -18 -18 -18 -18 -18 -18 -18 -18
-17 -17 -17 -17 -17 -17 -17 -17 -17 -17 -17 -17 -17 -17 -18 -18 -17 -17 -17 -17 -17 -18 -18 -18 -18 -18 -18 -18 -18 -18 -18 -18 -18 -18 -18 -18 -18 -18 -18 -18 -19 -19
-17 -17 -17 -17 -17 -17 -17 -17 -17 -17 -17 -17 -17 -17 -17 -17 -17 -18 -18 -17 -17 -18 -18 -18 -18 -18 -18 -18 -18 -18 -18 -18 -18 -18 -18 -18 -18 -18 -18 -19 -19 -19
-17 -17 -17 -17 -17 -17 -17 -18 -18 -18 -17 -17 -18 -18 -18 -18 -18 -18 -18 -18 -18 -18 -18 -18 -18 -18 -18 -18 -18 -18 -18 -18 -18 -18 -18 -18 -19 -18 -18 -19 -19 -19
-17 -17 -17 -17 -17 -17 -18 -18 -18 -18 -18 -18 -18 -18 -18 -18 -18 -19 -18 -18 -18 -18 -18 -18 -18 -18 -18 -18 -18 -18 -18 -18 -18 -18 -19 -19 -19 -19 -19 -19 -19 -19
-18 -18 -18 -18 -18 -18 -18 -18 -18 -18 -18 -18 -18 -18 -18 -18 -18 -18 -18 -18 -18 -18 -18 -18 -18 -18 -18 -18 -18 -18 -18 -18 -18 -19 -19 -19 -19 -19 -19 -19 -19 -19
-18 -18 -18 -19 -18 -18 -18 -18 -19 -19 -18 -18 -18 -18 -18 -18 -18 -18 -18 -18 -18 -18 -18 -18 -18 -18 -18 -18 -18 -18 -18 -18 -18 -19 -19 -19 -19 -19 -19 -19 -19 -19
-18 -18 -18 -19 -19 -19 -19 -19 -19 -19 -19 -19 -19 -19 -19 -18 -18 -18 -18 -18 -18 -18 -18 -18 -18 -18 -18 -18 -18 -18 -18 -18 -18 -19 -19 -19 -19 -19 -19 -19 -19 -19
-18 -18 -18 -18 -19 -19 -19 -19 -19 -19 -19 -19 -19 -18 -18 -18 -18 -18 -18 -19 -19 -19 -19 -19 -19 -19 -19 -19 -19 -19 -19 -19 -19 -19 -19 -19 -19 -19 -19 -19 -19 -20
-18 -18 -18 -18 -18 -18 -18 -19 -19 -19 -19 -19 -18 -18 -18 -18 -18 -18 -19 -19 -19 -19 -19 -19 -19 -19 -19 -19 -19 -19 -19 -19 -19 -19 -19 -19 -19 -19 -19 -19 -20 -20
Height
5768 5769 5770 5771 5773 5773 5774 5775 5775 5775 5775 5774 5774 5775 5775 5776 5776 5776 5776 5777 5778 5778 5778 5778 5778 5779 5779 5780 5780 5781 5780 5780 5780 5780 5781 5781 5781 5780 5780 5780 5780 5780
5766 5767 5768 5769 5770 5771 5772 5773 5773 5773 5773 5772 5772 5772 5773 5773 5774 5774 5774 5775 5775 5775 5775 5775 5776 5777 5777 5778 5779 5779 5779 5778 5778 5778 5778 5778 5778 5778 5778 5778 5778 5778
5764 5765 5765 5766 5767 5768 5769 5770 5770 5770 5770 5770 5769 5770 5770 5771 5771 5771 5771 5772 5772 5772 5773 5773 5774 5774 5775 5776 5777 5777 5776 5776 5776 5776 5776 5776 5776 5776 5775 5775 5775 5775
5762 5762 5763 5763 5764 5765 5766 5767 5767 5767 5767 5767 5767 5767 5767 5768 5768 5768 5768 5769 5769 5770 5770 5771 5772 5772 5773 5774 5774 5774 5774 5774 5774 5774 5774 5774 5773 5773 5773 5773 5773 5773
5760 5760 5760 5760 5761 5762 5762 5763 5764 5764 5765 5764 5764 5764 5764 5765 5766 5766 5766 5766 5767 5767 5768 5769 5770 5770 5771 5771 5771 5771 5771 5771 5771 5771 5771 5771 5771 5771 5771 5771 5771 5771
5757 5757 5757 5757 5758 5758 5759 5759 5760 5761 5761 5761 5761 5761 5761 5762 5763 5763 5764 5764 5764 5765 5766 5767 5768 5768 5768 5768 5768 5768 5768 5768 5768 5769 5769 5769 5769 5769 5769 5769 5769 5769
5754 5754 5754 5754 5754 5754 5755 5756 5757 5757 5757 5758 5758 5758 5758 5759 5760 5761 5761 5762 5762 5763 5764 5764 5765 5766 5766 5766 5765 5765 5765 5766 5766 5767 5767 5768 5768 5768 5768 5768 5768 5768
5750 5751 5751 5751 5750 5751 5752 5752 5753 5753 5754 5755 5755 5755 5755 5756 5757 5758 5759 5760 5760 5761 5761 5762 5762 5763 5763 5763 5763 5763 5764 5764 5765 5766 5766 5766 5767 5766 5766 5766 5766 5766
5746 5747 5747 5747 5747 5747 5748 5748 5749 5750 5750 5751 5752 5752 5753 5753 5755 5755 5756 5757 5758 5758 5759 5760 5760 5760 5760 5760 5761 5762 5762 5763 5764 5764 5764 5764 5764 5764 5764 5764 5764 5765
5744 5744 5744 5744 5744 5744 5744 5745 5745 5746 5747 5748 5749 5749 5750 5751 5752 5753 5753 5754 5755 5756 5757 5758 5758 5758 5757 5758 5759 5759 5760 5760 5761 5761 5761 5761 5762 5762 5762 5762 5763 5763
5742 5743 5742 5741 5740 5740 5741 5741 5741 5743 5744 5745 5746 5747 5748 5748 5749 5750 5751 5752 5753 5754 5755 5756 5756 5756 5755 5756 5756 5756 5757 5757 5758 5759 5760 5761 5761 5761 5761 5761 5762 5762
5740 5740 5740 5739 5737 5737 5738 5737 5738 5739 5741 5742 5743 5744 5745 5746 5747 5748 5749 5749 5750 5752 5753 5753 5753 5753 5753 5753 5753 5754 5754 5755 5756 5756 5757 5758 5759 5759 5759 5759 5760 5760
5736 5736 5736 5736 5735 5735 5735 5734 5735 5736 5738 5740 5740 5741 5743 5744 5745 5745 5746 5747 5748 5749 5749 5749 5750 5750 5750 5751 5751 5751 5752 5753 5753 5753 5754 5755 5756 5756 5757 5757 5758 5758
5733 5734 5734 5734 5733 5733 5732 5732 5732 5734 5735 5737 5738 5739 5740 5741 5742 5743 5744 5744 5745 5745 5746 5747 5748 5749 5749 5749 5749 5749 5750 5750 5750 5752 5753 5753 5754 5754 5754 5754 5755 5756
5732 5733 5733 5733 5733 5732 5731 5731 5731 5732 5733 5735 5736 5738 5739 5740 5740 5741 5741 5741 5742 5742 5743 5745 5746 5746 5746 5746 5747 5747 5748 5748 5749 5750 5751 5752 5752 5752 5752 5752 5752 5753
5731 5732 5732 5732 5733 5732 5731 5730 5730 5731 5732 5733 5735 5736 5737 5738 5739 5739 5740 5739 5739 5740 5740 5741 5742 5742 5743 5744 5745 5746 5746 5747 5748 5749 5749 5749 5749 5750 5750 5750 5750 5750
5728 5729 5729 5729 5731 5731 5729 5729 5729 5730 5731 5732 5733 5734 5736 5737 5737 5738 5738 5737 5737 5737 5737 5738 5739 5740 5740 5741 5742 5743 5744 5745 5745 5746 5747 5747 5747 5747 5748 5748 5748 5748
5725 5726 5726 5726 5727 5728 5727 5727 5727 5728 5729 5731 5732 5733 5734 5735 5736 5736 5736 5735 5735 5735 5735 5736 5736 5737 5737 5738 5739 5740 5740 5741 5742 5742 5743 5743 5743 5744 5744 5744 5744 5744
5722 5723 5724 5723 5723 5723 5724 5725 5726 5726 5727 5728 5730 5731 5731 5732 5732 5732 5732 5733 5733 5733 5733 5733 5734 5734 5734 5735 5735 5736 5737 5737 5738 5738 5739 5740 5740 5740 5740 5740 5740 5740
5718 5720 5721 5721 5720 5719 5720 5721 5723 5724 5725 5726 5727 5727 5728 5728 5728 5728 5729 5729 5730 5729 5730 5730 5730 5731 5731 5731 5732 5732 5733 5734 5734 5735 5735 5735 5735 5736 5736 5736 5736 5736
5715 5716 5717 5717 5717 5716 5716 5717 5718 5720 5722 5723 5723 5723 5724 5724 5724 5724 5725 5726 5726 5726 5727 5727 5727 5727 5727 5728 5728 5728 5729 5730 5731 5731 5730 5730 5731 5732 5733 5732 5731 5732
5711 5711 5712 5712 5712 5712 5712 5713 5713 5715 5717 5718 5718 5718 5720 5720 5720 5720 5721 5721 5722 5722 5722 5722 5722 5723 5723 5723 5724 5724 5724 5725 5726 5726 5725 5725 5726 5727 5728 5728 5727 5727
5706 5706 5706 5706 5707 5706 5706 5707 5707 5709 5710 5712 5712 5713 5714 5715 5715 5715 5715 5716 5716 5716 5717 5717 5717 5717 5718 5718 5718 5718 5719 5721 5721 5720 5719 5720 5721 5722 5723 5722 5722 5722
5701 5700 5700 5700 5701 5701 5701 5701 5702 5704 5705 5707 5707 5707 5708 5709 5709 5709 5710 5710 5710 5710 5711 5712 5712 5712 5712 5712 5712 5712 5713 5716 5716 5714 5714 5715 5716 5716 5716 5716 5716 5716
5696 5696 5695 5696 5696 5697 5697 5697 5698 5700 5701 5701 5701 5701 5702 5703 5703 5704 5704 5703 5703 5704 5705 5705 5706 5706 5706 5706 5706 5706 5708 5710 5711 5709 5709 5709 5709 5710 5710 5710 5709 5709
5691 5691 5691 5691 5691 5691 5692 5692 5692 5692 5693 5693 5694 5694 5695 5697 5698 5699 5698 5698 5698 5699 5699 5699 5699 5700 5700 5700 5700 5700 5701 5703 5704 5704 5703 5703 5703 5704 5704 5704 5703 5702
Wind_Speed
10 12 13 14 14 14 13 14 17 19 22 22 20 18 18 18 18 17 18 19 18 16 14 13 12 12 12 11 11 11 10 9 9 8 8 7 7 8 8 9 9 10
11 12 13 14 14 14 13 14 16 19 21 22 20 19 19 19 18 17 18 20 19 17 15 15 15 15 14 13 13 12 11 10 9 8 8 8 8 8 8 8 9 9
11 12 14 15 17 17 16 16 17 18 20 22 22 22 21 21 19 18 18 19 20 18 17 17 17 17 17 16 14 13 12 10 10 9 8 8 8 8 8 8 8 9
12 13 14 16 18 20 21 21 20 20 21 22 23 24 23 22 20 19 18 19 19 19 18 19 19 19 18 17 15 14 12 11 11 10 9 9 8 8 8 8 8 8
15 15 16 17 19 20 22 23 23 22 22 23 25 26 25 23 22 20 19 19 19 19 20 20 20 20 19 18 17 15 14 13 12 11 11 10 9 9 8 8 8 8
15 15 16 18 20 21 22 22 23 23 23 24 26 27 27 25 23 21 20 20 20 20 21 21 21 21 20 18 17 16 15 14 13 13 13 12 11 11 10 9 9 9
17 16 16 17 20 21 21 22 23 24 25 25 26 28 29 27 25 23 22 21 21 21 21 21 21 20 19 18 17 16 15 14 14 15 15 14 13 12 11 10 10 10
18 19 18 18 18 18 18 21 23 25 26 26 27 29 30 29 26 24 24 22 21 20 21 21 20 19 18 18 17 16 15 15 15 16 15 15 13 12 11 11 11 11
18 19 20 21 20 18 17 18 21 24 26 27 28 30 30 30 28 25 25 24 21 20 20 20 19 18 18 18 16 15 14 14 15 15 14 14 13 12 11 11 10 11
17 18 20 21 22 21 20 20 20 23 27 29 30 30 30 29 28 26 25 24 22 20 20 20 19 18 17 16 15 14 14 15 15 15 15 15 14 13 13 12 12 12
15 17 20 23 24 23 22 22 21 22 26 29 30 31 31 29 29 28 26 25 23 20 20 19 17 16 15 15 15 16 17 17 17 17 17 15 14 14 14 14 14 15
15 18 21 23 24 22 20 21 22 23 26 30 32 32 32 30 30 29 26 25 23 20 19 19 18 17 17 16 16 17 18 17 18 18 18 17 16 16 17 17 16 17
15 17 19 21 21 19 18 19 22 23 25 30 33 34 33 32 30 28 27 25 23 21 22 21 20 19 18 16 17 18 18 18 19 19 19 19 19 18 18 18 18 18
15 16 17 17 16 15 15 15 17 20 24 29 32 32 32 29 27 25 24 24 23 23 24 23 20 18 17 16 16 18 19 19 18 18 18 19 20 20 20 19 19 18
14 14 14 14 14 14 14 13 14 17 20 24 26 25 24 23 22 22 22 22 23 24 23 23 22 20 19 19 18 18 19 20 18 17 19 21 22 22 21 20 20 20
13 14 15 17 17 15 14 14 15 15 16 19 20 19 18 17 17 18 19 21 22 23 23 23 24 23 22 22 21 19 19 21 22 20 19 21 23 23 22 21 21 21
15 15 16 17 17 15 14 14 13 12 13 15 16 15 14 14 14 16 17 19 20 21 22 22 23 23 23 22 21 20 20 22 23 23 22 23 23 22 23 23 23 22
17 17 17 17 17 17 16 16 15 14 13 14 15 16 16 16 16 17 18 19 19 19 19 20 22 22 23 22 22 22 22 24 25 26 28 28 26 23 23 23 24 24
22 21 20 20 21 21 20 19 19 19 18 18 18 18 18 18 19 21 22 21 21 20 20 21 22 22 23 23 23 24 25 26 27 29 30 30 29 28 27 26 26 25
25 24 23 23 25 25 23 20 20 20 20 21 21 20 20 21 23 24 23 22 23 23 23 23 24 25 25 25 26 27 28 28 29 30 31 31 31 30 29 28 28 28
26 26 26 27 28 28 27 25 25 26 25 25 25 25 24 24 25 24 24 24 25 26 26 27 28 28 29 29 30 31 31 31 31 31 33 34 33 32 30 29 29 30
27 27 28 28 30 31 32 32 33 33 31 30 30 29 28 28 29 29 29 30 31 31 30 31 31 31 32 33 33 34 34 34 34 34 35 36 37 37 36 35 35 36
30 29 29 29 30 32 34 35 35 35 34 34 35 34 34 34 34 34 35 35 35 35 34 34 34 35 36 36 37 37 38 38 37 38 39 40 40 41 41 41 42 43
32 31 31 31 30 31 34 36 36 36 37 38 38 38 38 38 38 37 37 37 37 38 38 39 39 39 39 40 41 41 40 39 40 41 43 43 43 44 44 45 45 45
32 32 33 32 31 30 32 34 35 37 38 38 38 38 37 37 37 38 39 39 40 40 41 42 42 42 43 43 43 43 43 41 41 42 43 43 43 44 45 46 45 44
34 34 34 33 33 33 34 36 37 37 38 38 37 37 36 35 35 36 38 40 41 41 42 43 44 44 45 44 44 44 44 42 41 40 40 41 41 42 43 44 44 43
Wind_Direction
258 260 258 255 258 262 263 257 257 266 276 280 275 268 269 270 271 270 259 250 252 254 254 257 260 263 268 272 277 281 282 282 284 285 287 290 290 290 291 291 291 291
261 265 263 257 253 253 256 261 266 269 271 272 267 261 264 265 264 263 254 247 250 256 261 264 264 265 268 270 277 283 283 284 286 288 292 295 296 296 296 297 298 298
259 265 266 259 251 250 256 264 270 270 269 268 263 258 259 261 259 256 253 249 251 258 264 267 267 268 269 272 279 284 283 284 284 286 291 294 296 298 297 297 296 295
257 260 260 257 253 254 259 264 268 269 268 266 263 259 258 259 257 253 252 253 255 260 266 268 269 270 270 273 280 285 285 285 285 287 289 291 292 293 292 292 292 291
256 257 254 252 253 255 258 261 262 264 266 266 264 261 259 260 259 254 251 254 258 263 267 269 270 271 272 274 280 285 286 287 287 286 286 284 283 282 283 285 286 287
254 257 255 251 251 253 255 258 260 261 262 263 263 261 260 260 259 255 251 254 259 264 270 273 273 272 272 274 279 283 285 287 287 286 285 282 280 279 278 278 278 279
251 254 256 253 251 251 253 256 259 259 259 259 259 259 259 259 258 254 251 253 259 266 271 273 270 268 267 271 275 278 281 283 285 285 285 285 284 283 283 283 282 278
248 250 255 257 255 254 254 253 253 256 259 258 254 254 256 257 257 255 253 254 260 267 270 268 263 259 261 265 270 274 279 285 288 290 289 288 287 286 286 289 290 287
244 246 250 254 256 254 253 253 249 251 257 257 251 249 253 256 256 256 255 256 260 264 265 262 258 256 259 263 269 276 282 286 288 287 284 280 278 276 276 279 282 284
249 253 255 258 261 256 253 254 248 246 253 254 248 246 250 252 254 256 257 258 260 263 264 263 262 262 263 266 271 275 277 280 281 280 279 278 276 273 274 275 276 275
255 258 260 262 262 257 254 254 246 244 254 254 248 247 248 249 252 255 258 261 262 265 267 266 265 262 262 266 270 274 279 283 286 285 284 284 281 276 274 275 276 276
255 252 254 259 261 260 262 257 243 241 251 252 249 250 250 251 253 254 257 262 264 267 268 264 260 257 258 263 269 275 282 287 288 286 283 281 279 275 273 272 273 275
255 255 257 261 265 269 272 261 243 240 246 248 249 251 252 252 253 253 257 262 263 265 265 263 262 263 266 273 278 281 282 284 285 282 280 279 277 274 273 272 273 274
255 261 265 265 264 264 266 255 237 232 236 240 246 251 253 253 252 253 257 260 259 260 263 267 270 271 273 277 281 283 281 281 281 281 280 280 280 280 277 274 276 278
254 261 271 271 264 260 260 253 237 230 235 242 249 255 257 254 252 254 257 257 260 263 266 269 270 270 271 273 277 281 277 273 275 281 283 282 281 281 279 276 277 278
254 261 270 272 269 269 268 259 245 239 245 252 254 256 259 260 262 265 265 264 265 267 267 267 267 269 271 273 275 278 274 270 272 279 287 289 284 278 275 276 276 277
260 268 274 274 271 271 270 265 256 251 253 253 251 255 263 270 273 276 277 275 271 268 266 267 268 270 272 273 275 275 274 273 273 274 282 292 289 279 274 274 275 276
269 278 282 280 274 266 262 263 264 264 264 260 259 264 269 272 276 278 279 279 277 272 269 268 269 270 272 273 275 274 274 274 274 274 278 283 284 280 277 274 272 271
272 276 278 277 272 266 262 260 260 263 269 270 268 266 266 270 277 278 275 274 273 271 269 269 270 271 272 274 276 276 276 276 277 279 280 279 277 276 276 274 271 268
270 272 272 271 270 269 266 261 257 262 270 270 266 260 261 270 278 276 270 267 267 268 268 270 272 272 273 275 278 279 280 280 281 282 282 281 278 275 274 273 273 271
272 274 273 272 270 269 266 261 261 267 271 268 264 260 259 267 274 273 269 266 266 267 268 269 271 271 270 272 275 277 278 278 280 282 281 280 279 277 275 273 274 274
272 273 272 270 267 266 265 263 264 268 268 266 264 261 259 263 268 269 270 271 270 269 268 268 269 268 268 269 271 273 273 273 275 277 277 277 277 277 275 273 273 275
269 270 268 264 262 262 264 265 265 264 264 265 264 262 262 265 266 266 268 269 269 268 268 268 267 266 266 268 268 269 270 271 273 275 276 276 277 276 274 273 273 273
269 270 269 266 263 261 260 261 262 262 262 263 262 262 263 265 266 266 266 265 264 264 265 266 267 267 267 267 268 268 268 268 269 272 274 275 276 276 276 275 275 275
263 265 266 266 263 259 257 257 257 258 258 258 259 260 263 265 266 267 266 265 264 264 264 264 265 265 266 266 267 267 266 265 265 267 269 271 273 275 276 276 276 276
257 257 259 260 260 258 256 256 257 257 256 256 256 258 260 262 265 265 266 266 266 266 266 266 266 265 265 266 266 266 265 264 263 263 266 268 271 273 275 275 275 275